FW3021 Weather Reports


Display with metric or nautical units.
time (UTC)temp
F
wind
direction
speed
MPH
gust
MPH
rain 1hr
in
rain 24hr
in
rain mn
in
humidity
%
barometer
mb
20260504231017 48 203 4.0 10.0 0.00 0.02 0.02 46 997.8
20260504230037 47 225 4.0 13.0 0.00 0.02 0.02 48 997.5
20260504225017 48 315 5.0 18.0 0.00 0.02 0.02 49 997.4
20260504224017 48 338 6.0 16.0 0.00 0.02 0.02 51 997.3
20260504223017 49 225 4.0 11.0 0.00 0.02 0.02 48 996.9
20260504222037 50 203 5.0 19.0 0.00 0.02 0.02 49 996.7
20260504221017 49 270 6.0 17.0 0.00 0.02 0.02 46 996.5
20260504220017 48 338 5.0 15.0 0.00 0.02 0.02 55 996.4
20260504215037 50 315 9.0 23.0 0.00 0.02 0.02 50 996.9
20260504214017 51 248 5.0 17.0 0.00 0.02 0.02 48 996.1
20260504213017 49 338 6.0 27.0 0.01 0.02 0.02 49 996.0
20260504212016 53 315 7.0 17.0 0.01 0.02 0.02 39 995.8
20260504211037 53 225 5.0 13.0 0.01 0.02 0.02 42 995.5
20260504210057 52 225 5.0 17.0 0.01 0.02 0.02 48 995.5
20260504205016 50 225 5.0 10.0 0.01 0.02 0.02 53 995.5
20260504204017 47 225 3.0 9.0 0.01 0.02 0.02 59 995.5
20260504203017 50 338 11.0 24.0 0.00 0.01 0.01 50 995.5
20260504202037 52 225 8.0 20.0 0.00 0.01 0.01 45 995.1
20260504201017 51 315 7.0 21.0 0.00 0.01 0.01 52 995.0
20260504200016 49 338 6.0 22.0 0.00 0.01 0.01 59 994.9
20260504195016 52 338 8.0 21.0 0.00 0.01 0.01 48 994.8
20260504194017 53 248 5.0 11.0 0.00 0.01 0.01 46 994.2
20260504193017 50 315 6.0 19.0 0.00 0.01 0.01 56 994.1
20260504192016 53 315 7.0 22.0 0.00 0.01 0.01 47 994.3
20260504191016 52 0 8.0 19.0 0.00 0.01 0.01 48 994.0
20260504190016 51 338 7.0 22.0 0.00 0.01 0.01 51 993.9
20260504185016 54 338 6.0 16.0 0.00 0.01 0.01 46 994.0
20260504184016 54 338 8.0 21.0 0.00 0.01 0.01 40 993.3
20260504183016 56 338 7.0 19.0 0.00 0.01 0.01 39 993.2
20260504182036 55 225 5.0 16.0 0.00 0.01 0.01 42 993.1
20260504181016 52 203 5.0 21.0 0.00 0.01 0.01 49 993.1
20260504180016 52 315 11.0 24.0 0.00 0.01 0.01 47 993.3
20260504175016 54 315 9.0 27.0 0.00 0.01 0.01 40 992.6
20260504174036 53 338 6.0 25.0 0.00 0.01 0.01 46 992.7
20260504173016 53 315 8.0 19.0 0.00 0.01 0.01 45 992.3
20260504172016 52 225 5.0 21.0 0.00 0.01 0.01 48 992.2
20260504171016 52 338 5.0 18.0 0.00 0.01 0.01 49 992.1
20260504151016 53 225 5.0 15.0 0.01 0.01 0.01 53 990.1
20260504141016 53 225 2.0 6.0 0.00 0.00 0.00 57 989.8
20260504081017 46 293 1.0 4.0 0.00 0.00 0.00 52 989.9
20260504050017 43 225 2.0 10.0 0.00 0.00 0.00 55 995.0
20260504045017 42 0.0 2.0 0.00 0.00 0.00 60 995.1
20260504044017 41 0.0 3.0 0.00 0.00 0.00 63 995.3
20260504043017 40 0.0 2.0 0.00 0.00 0.00 63 995.5
20260504042037 40 0.0 0.0 0.00 0.00 0.00 63 995.8
20260504041017 40 225 1.0 3.0 0.00 0.00 0.00 64 996.1
20260504040017 39 225 1.0 3.0 0.00 0.00 0.00 65 995.8
20260504035037 40 0.0 1.0 0.00 0.00 0.00 63 996.1
20260504034057 41 0.0 1.0 0.00 0.00 0.00 62 996.2
20260504033017 41 0.0 1.0 0.00 0.00 0.00 61 996.4
20260504032017 43 0.0 3.0 0.00 0.00 0.00 58 996.6
20260504031017 42 225 1.0 2.0 0.00 0.00 0.00 59 996.9
20260504030017 42 225 1.0 2.0 0.00 0.00 0.00 60 997.1
20260504025037 43 225 1.0 4.0 0.00 0.00 0.00 58 997.6
20260504024017 43 225 1.0 2.0 0.00 0.00 0.00 57 997.7
20260504023017 44 225 1.0 4.0 0.00 0.00 0.00 56 998.0
20260504022017 43 0.0 2.0 0.00 0.00 0.00 57 998.1
20260504021017 43 0.0 0.0 0.00 0.00 0.00 57 998.2
20260504020037 44 0.0 1.0 0.00 0.00 0.00 56 998.3
20260504015037 44 0.0 2.0 0.00 0.00 0.00 55 998.6
20260504014016 44 225 1.0 3.0 0.00 0.00 0.00 54 998.8
20260504013017 45 0.0 0.0 0.00 0.00 0.00 53 999.0
20260504012017 46 0.0 0.0 0.00 0.00 0.00 50 999.1
20260504011016 47 0.0 0.0 0.00 0.00 0.00 48 999.2
20260504010016 48 0.0 2.0 0.00 0.00 0.00 46 999.3
20260504005016 49 0.0 1.0 0.00 0.00 0.00 43 999.2
20260504004016 56 225 2.0 6.0 0.00 0.00 0.00 32 999.5
20260504003016 64 225 1.0 11.0 0.00 0.00 0.00 20 999.6
20260504002017 64 0.0 1.0 0.00 0.00 0.00 19 999.6
20260504001056 65 338 2.0 6.0 0.00 0.00 0.00 19 999.9
20260504000016 65 293 2.0 6.0 0.00 0.00 0.00 18 999.9
20260503235016 65 293 2.0 8.0 0.00 0.00 0.00 17 999.9
20260503234017 65 338 4.0 14.0 0.00 0.00 0.00 17 999.9
20260503233016 65 270 4.0 10.0 0.00 0.00 0.00 17 1000.0
20260503232016 65 270 6.0 18.0 0.00 0.00 0.00 17 1000.1